Location: Middelsbur
(53.6609°N, 7.5020°E)
Time: 12:59:26
(UTC+00:00)

Cosmos 1515 Rocket - Pass Details

Date: 06 July 2020
Orbit: 606 x 630 km, 82.5° (Epoch: 06 August)

Event Time Altitude Azimuth Distance (km) Brightness Sun altitude
Rises 22:50:37 0° 350° (N) 2,881 9.1 -13.2°
Reaches altitude 10° 22:52:52 10° 354° (N) 1,974 7.6 -13.2°
Maximum altitude 22:57:12 62° 76° (ENE) 691 3.8 -13.3°
Enters shadow 23:00:08 20° 153° (SSE) 1,433 4.9 -13.4°
